Roros Lufthavn, Norway

6:08 PM CEST on August 19, 2017 (GMT +0200)
Roros

Weather History for ENRO - February, 2013

Change the Weather History Date:

Friday, February 15, 2013

  Actual Average Record
Temperature  
Mean Temperature 15 °F -  
Max Temperature 32 °F 24 °F 37 °F (2001)
Min Temperature -4 °F 13 °F -25 °F (1997)
Degree Days  
Heating Degree Days 50    
Moisture  
Dew Point 6 °F    
Average Humidity 70    
Maximum Humidity 92    
Minimum Humidity 48    
Precipitation  
Precipitation 0.00 in - - ()
Sea Level Pressure  
Sea Level Pressure 30.01 in    
Wind  
Wind Speed 5 mph ()    
Max Wind Speed 12 mph    
Max Gust Speed -    
Visibility 6.2 miles    
Events      
Averages and records for this station are not official NWS values.
T = Trace of Precipitation, MM = Missing Value Source: Averaged Metar Reports

Daily Weather History Graph

Daily Weather History Graph

Search for Another Location

Airport or City:

Trip Planner

Search our weather history database for the weather conditions in past years. The results will help you decide how hot, cold, wet, or windy it might be!

Date:

Astronomy

Feb. 15, 2013 Rise Set
Actual Time 8:02 AM CET 4:55 PM CET
Civil Twilight 7:14 AM CET 5:44 PM CET
Nautical Twilight 6:21 AM CET 6:37 PM CET
Astronomical Twilight 5:29 AM CET 7:29 PM CET
Moon 8:32 AM CET (2/15) No Moon Set
Length of Visible Light 10h 29m
Length of Day
8h 53m
Waxing Crescent, 28% of the Moon is Illuminated
Feb 15
Waxing Crescent
Feb 17
First Quarter
Feb 25
Full
Mar 4
Last Quarter
Mar 11
New

Hourly Weather History & Observations

Time (CET) Temp. Windchill Dew Point Humidity Pressure Visibility Wind Dir Wind Speed Gust Speed Precip Events Conditions
12:20 AM 19.4 °F 7.9 °F 10.4 °F 68% 30.04 in 6.2 mi South 10.4 mph - N/A   Scattered Clouds
12:50 AM 17.6 °F - 10.4 °F 73% 30.04 in 6.2 mi Variable 2.3 mph - N/A   Partly Cloudy
1:20 AM 19.4 °F 9.5 °F 10.4 °F 68% 30.01 in 6.2 mi SSE 8.1 mph - N/A   Mostly Cloudy
1:50 AM 19.4 °F 8.6 °F 12.2 °F 74% 30.01 in 6.2 mi SE 9.2 mph - N/A   Scattered Clouds
2:20 AM 19.4 °F 11.5 °F 10.4 °F 68% 30.01 in 6.2 mi South 5.8 mph - N/A   Partly Cloudy
2:50 AM 17.6 °F 10.7 °F 10.4 °F 73% 30.01 in 6.2 mi SSW 4.6 mph - N/A   Unknown
3:20 AM 19.4 °F 10.4 °F 12.2 °F 74% 29.98 in 6.2 mi SSE 6.9 mph - N/A   Unknown
3:50 AM 21.2 °F 11.7 °F 12.2 °F 68% 29.98 in 6.2 mi SSE 8.1 mph - N/A   Partly Cloudy
4:20 AM 19.4 °F 7.2 °F 10.4 °F 68% 29.98 in 6.2 mi SSE 11.5 mph - N/A   Unknown
4:50 AM 19.4 °F 8.6 °F 10.4 °F 68% 29.98 in 6.2 mi South 9.2 mph - N/A   Partly Cloudy
5:20 AM 19.4 °F 10.4 °F 10.4 °F 68% 30.01 in 6.2 mi SSE 6.9 mph - N/A   Unknown
5:50 AM 19.4 °F 9.5 °F 10.4 °F 68% 30.01 in - South 8.1 mph - N/A   Clear
6:20 AM 19.4 °F 8.6 °F 10.4 °F 68% 30.01 in 6.2 mi South 9.2 mph - N/A   Partly Cloudy
6:50 AM 17.6 °F 7.3 °F 8.6 °F 68% 30.01 in - South 8.1 mph - N/A   Clear
7:50 AM 17.6 °F 10.7 °F 8.6 °F 68% 30.01 in 6.2 mi South 4.6 mph - N/A   Partly Cloudy
8:20 AM 17.6 °F 8.2 °F 10.4 °F 73% 30.01 in 6.2 mi SSE 6.9 mph - N/A   Partly Cloudy
9:20 AM 17.6 °F 6.4 °F 8.6 °F 68% 30.01 in 6.2 mi South 9.2 mph - N/A   Partly Cloudy
9:50 AM 19.4 °F 11.5 °F 10.4 °F 68% 30.01 in 6.2 mi SSE 5.8 mph - N/A   Partly Cloudy
10:20 AM 19.4 °F 14.3 °F 8.6 °F 63% 30.01 in - SSE 3.5 mph - N/A   Clear
10:50 AM 23.0 °F 17.0 °F 12.2 °F 63% 30.01 in - ESE 4.6 mph - N/A   Clear
11:20 AM 23.0 °F 18.4 °F 10.4 °F 59% 30.01 in - SE 3.5 mph - N/A   Clear
11:50 AM 32.0 °F - 14.0 °F 48% 30.01 in - Calm Calm - N/A   Clear
12:50 PM 24.8 °F 20.5 °F 10.4 °F 54% 30.01 in - East 3.5 mph - N/A   Clear
1:20 PM 26.6 °F - 10.4 °F 51% 30.01 in - Variable 2.3 mph - N/A   Clear
1:50 PM 23.0 °F 13.9 °F 8.6 °F 54% 30.01 in - SW 8.1 mph - N/A   Clear
2:20 PM 23.0 °F 14.7 °F 8.6 °F 54% 30.01 in - Variable 6.9 mph - N/A   Clear
2:50 PM 23.0 °F - 10.4 °F 59% 29.98 in - Variable 2.3 mph - N/A   Clear
3:20 PM 23.0 °F 17.0 °F 8.6 °F 54% 30.01 in - SE 4.6 mph - N/A   Clear
4:20 PM 19.4 °F - 6.8 °F 58% 29.98 in - Variable 2.3 mph - N/A   Clear
6:20 PM 8.6 °F - 3.2 °F 79% 30.01 in - Variable 1.2 mph - N/A   Clear
6:50 PM 8.6 °F - 3.2 °F 79% 30.01 in - Variable 2.3 mph - N/A   Clear
7:20 PM 5.0 °F - 1.4 °F 85% 30.01 in - Variable 2.3 mph - N/A   Clear
7:50 PM 3.2 °F - -0.4 °F 85% 30.01 in - Variable 1.2 mph - N/A   Clear
8:20 PM 1.4 °F - -2.2 °F 85% 30.01 in - Calm Calm - N/A   Clear
8:50 PM -0.4 °F - -4.0 °F 85% 30.01 in - Variable 2.3 mph - N/A   Clear
9:20 PM -0.4 °F - -4.0 °F 85% 30.01 in 6.2 mi NE 2.3 mph - N/A   Ice Crystals
9:50 PM -0.4 °F - -2.2 °F 92% 30.01 in 6.2 mi Calm Calm - N/A   Unknown
10:20 PM -2.2 °F - -5.8 °F 85% 30.01 in 6.2 mi Variable 1.2 mph - N/A   Unknown
10:50 PM -0.4 °F - -4.0 °F 85% 30.01 in 6.2 mi Variable 1.2 mph - N/A   Unknown
11:20 PM -2.2 °F - -5.8 °F 85% 30.01 in 6.2 mi Calm Calm - N/A   Unknown
11:50 PM -4.0 °F - -9.4 °F 78% 30.01 in 6.2 mi Variable 2.3 mph - N/A   Unknown